owner,sensor,date,latitude,longitude,vertical_datum,wind_speed,wind_to_direction,wind_speed_of_gust,qcFlag 
ADCP,ioos:station:wmo:42364:1,2016-12-01T00:30:00Z,29.0600,-88.0900,122.0,4.2,359.0,99.0,'11111222,11111222,11144222' 
ADCP,ioos:station:wmo:42364:1,2016-12-01T01:30:00Z,29.0600,-88.0900,122.0,4.9,30.0,99.0,'11111222,11111222,11144222' 
ADCP,ioos:station:wmo:42364:1,2016-12-01T02:30:00Z,29.0600,-88.0900,122.0,5.1,7.0,99.0,'11111222,11111222,11144222' 
ADCP,ioos:station:wmo:42364:1,2016-12-01T03:30:00Z,29.0600,-88.0900,122.0,4.8,6.0,99.0,'11111222,11111222,11144222' 
ADCP,ioos:station:wmo:42364:1,2016-12-01T04:30:00Z,29.0600,-88.0900,122.0,3.1,1.0,99.0,'11111222,11111222,11144222' 
ADCP,ioos:station:wmo:42364:1,2016-12-01T05:30:00Z,29.0600,-88.0900,122.0,2.0,352.0,99.0,'11111222,11111222,11144222' 
ADCP,ioos:station:wmo:42364:1,2016-12-01T06:30:00Z,29.0600,-88.0900,122.0,3.2,345.0,99.0,'11111222,11111222,11144222' 
ADCP,ioos:station:wmo:42364:1,2016-12-01T07:30:00Z,29.0600,-88.0900,122.0,5.5,2.0,99.0,'11111222,11111222,11144222' 
ADCP,ioos:station:wmo:42364:1,2016-12-01T08:30:00Z,29.0600,-88.0900,122.0,6.0,359.0,99.0,'11111222,11111222,11144222' 
ADCP,ioos:station:wmo:42364:1,2016-12-01T09:30:00Z,29.0600,-88.0900,122.0,6.4,356.0,99.0,'11111222,11111222,11144222' 
ADCP,ioos:station:wmo:42364:1,2016-12-01T10:30:00Z,29.0600,-88.0900,122.0,6.3,357.0,99.0,'11111222,11111222,11144222' 
ADCP,ioos:station:wmo:42364:1,2016-12-01T11:30:00Z,29.0600,-88.0900,122.0,7.3,9.0,99.0,'11111222,11111222,11144222' 
ADCP,ioos:station:wmo:42364:1,2016-12-01T12:30:00Z,29.0600,-88.0900,122.0,7.6,14.0,99.0,'11111222,11111222,11144222' 
ADCP,ioos:station:wmo:42364:1,2016-12-01T13:30:00Z,29.0600,-88.0900,122.0,8.4,22.0,99.0,'11111222,11111222,11144222' 
ADCP,ioos:station:wmo:42364:1,2016-12-01T14:30:00Z,29.0600,-88.0900,122.0,8.8,29.0,99.0,'11111222,11111222,11144222' 
ADCP,ioos:station:wmo:42364:1,2016-12-01T15:30:00Z,29.0600,-88.0900,122.0,8.3,34.0,99.0,'11111222,11111222,11144222' 
ADCP,ioos:station:wmo:42364:1,2016-12-01T16:30:00Z,29.0600,-88.0900,122.0,7.5,34.0,99.0,'11111222,11111222,11144222' 
ADCP,ioos:station:wmo:42364:1,2016-12-01T17:30:00Z,29.0600,-88.0900,122.0,6.4,34.0,99.0,'11111222,11111222,11144222' 
ADCP,ioos:station:wmo:42364:1,2016-12-01T18:30:00Z,29.0600,-88.0900,122.0,5.5,32.0,99.0,'11111222,11111222,11144222' 
ADCP,ioos:station:wmo:42364:1,2016-12-01T19:30:00Z,29.0600,-88.0900,122.0,5.2,25.0,99.0,'11111222,11111222,11144222' 
ADCP,ioos:station:wmo:42364:1,2016-12-01T20:30:00Z,29.0600,-88.0900,122.0,4.6,24.0,99.0,'11111222,11111222,11144222' 
ADCP,ioos:station:wmo:42364:1,2016-12-01T21:30:00Z,29.0600,-88.0900,122.0,3.8,11.0,99.0,'11111222,11111222,11144222' 
ADCP,ioos:station:wmo:42364:1,2016-12-01T22:30:00Z,29.0600,-88.0900,122.0,3.3,3.0,99.0,'11111222,11111222,11144222' 
ADCP,ioos:station:wmo:42364:1,2016-12-01T23:30:00Z,29.0600,-88.0900,122.0,3.7,9.0,99.0,'11111222,11111222,11144222' 
ADCP,ioos:station:wmo:42364:1,2016-12-02T00:30:00Z,29.0600,-88.0900,122.0,5.1,17.0,99.0,'11111222,11111222,11144222' 
ADCP,ioos:station:wmo:42364:1,2016-12-02T01:30:00Z,29.0600,-88.0900,122.0,5.7,20.0,99.0,'11111222,11111222,11144222' 
ADCP,ioos:station:wmo:42364:1,2016-12-02T02:30:00Z,29.0600,-88.0900,122.0,6.4,28.0,99.0,'11111222,11111222,11144222' 
ADCP,ioos:station:wmo:42364:1,2016-12-02T03:30:00Z,29.0600,-88.0900,122.0,5.8,32.0,99.0,'11111222,11111222,11144222' 
ADCP,ioos:station:wmo:42364:1,2016-12-02T04:30:00Z,29.0600,-88.0900,122.0,5.9,37.0,99.0,'11111222,11111222,11144222' 
ADCP,ioos:station:wmo:42364:1,2016-12-02T05:30:00Z,29.0600,-88.0900,122.0,6.6,43.0,99.0,'11111222,11111222,11144222' 
ADCP,ioos:station:wmo:42364:1,2016-12-02T06:30:00Z,29.0600,-88.0900,122.0,5.9,44.0,99.0,'11111222,11111222,11144222' 
ADCP,ioos:station:wmo:42364:1,2016-12-02T08:30:00Z,29.0600,-88.0900,122.0,6.5,47.0,99.0,'11111222,11111222,11144222' 
ADCP,ioos:station:wmo:42364:1,2016-12-02T09:30:00Z,29.0600,-88.0900,122.0,6.9,43.0,99.0,'11111222,11111222,11144222' 
ADCP,ioos:station:wmo:42364:1,2016-12-02T10:30:00Z,29.0600,-88.0900,122.0,7.6,45.0,99.0,'11111222,11111222,11144222' 
ADCP,ioos:station:wmo:42364:1,2016-12-02T11:30:00Z,29.0600,-88.0900,122.0,8.4,50.0,99.0,'11111222,11111222,11144222' 
ADCP,ioos:station:wmo:42364:1,2016-12-02T12:30:00Z,29.0600,-88.0900,122.0,9.3,47.0,99.0,'11111222,11111222,11144222' 
ADCP,ioos:station:wmo:42364:1,2016-12-02T13:30:00Z,29.0600,-88.0900,122.0,8.8,49.0,99.0,'11111222,11111222,11144222' 
ADCP,ioos:station:wmo:42364:1,2016-12-02T14:30:00Z,29.0600,-88.0900,122.0,9.0,56.0,99.0,'11111222,11111222,11144222' 
ADCP,ioos:station:wmo:42364:1,2016-12-02T15:30:00Z,29.0600,-88.0900,122.0,10.3,61.0,99.0,'11111222,11111222,11144222' 
ADCP,ioos:station:wmo:42364:1,2016-12-02T16:30:00Z,29.0600,-88.0900,122.0,10.7,66.0,99.0,'11111222,11111222,11144222' 
ADCP,ioos:station:wmo:42364:1,2016-12-02T17:30:00Z,29.0600,-88.0900,122.0,10.1,71.0,99.0,'11111222,11111222,11144222' 
ADCP,ioos:station:wmo:42364:1,2016-12-02T18:30:00Z,29.0600,-88.0900,122.0,9.3,71.0,99.0,'11111222,11111222,11144222' 
ADCP,ioos:station:wmo:42364:1,2016-12-02T19:30:00Z,29.0600,-88.0900,122.0,9.1,69.0,99.0,'11111222,11111222,11144222' 
ADCP,ioos:station:wmo:42364:1,2016-12-02T20:30:00Z,29.0600,-88.0900,122.0,9.0,71.0,99.0,'11111222,11111222,11144222' 
ADCP,ioos:station:wmo:42364:1,2016-12-02T21:30:00Z,29.0600,-88.0900,122.0,9.3,65.0,99.0,'11111222,11111222,11144222' 
ADCP,ioos:station:wmo:42364:1,2016-12-02T22:30:00Z,29.0600,-88.0900,122.0,9.7,63.0,99.0,'11111222,11111222,11144222' 
ADCP,ioos:station:wmo:42364:1,2016-12-02T23:30:00Z,29.0600,-88.0900,122.0,8.9,59.0,99.0,'11111222,11111222,11144222' 
ADCP,ioos:station:wmo:42364:1,2016-12-03T00:30:00Z,29.0600,-88.0900,122.0,10.5,62.0,99.0,'11111222,11111222,11144222' 
ADCP,ioos:station:wmo:42364:1,2016-12-03T01:30:00Z,29.0600,-88.0900,122.0,11.1,66.0,99.0,'11111222,11111222,11144222' 
ADCP,ioos:station:wmo:42364:1,2016-12-03T02:30:00Z,29.0600,-88.0900,122.0,11.4,66.0,99.0,'11111222,11111222,11144222' 
ADCP,ioos:station:wmo:42364:1,2016-12-03T03:30:00Z,29.0600,-88.0900,122.0,11.5,67.0,99.0,'11111222,11111222,11144222' 
ADCP,ioos:station:wmo:42364:1,2016-12-03T04:30:00Z,29.0600,-88.0900,122.0,11.3,69.0,99.0,'11111222,11111222,11144222' 
ADCP,ioos:station:wmo:42364:1,2016-12-03T05:30:00Z,29.0600,-88.0900,122.0,11.8,66.0,99.0,'11111222,11111222,11144222' 
ADCP,ioos:station:wmo:42364:1,2016-12-03T06:30:00Z,29.0600,-88.0900,122.0,12.4,66.0,99.0,'11111222,11111222,11144222' 
ADCP,ioos:station:wmo:42364:1,2016-12-03T07:30:00Z,29.0600,-88.0900,122.0,12.4,70.0,99.0,'11111222,11111222,11144222' 
ADCP,ioos:station:wmo:42364:1,2016-12-03T08:30:00Z,29.0600,-88.0900,122.0,12.2,72.0,99.0,'11111222,11111222,11144222' 
ADCP,ioos:station:wmo:42364:1,2016-12-03T09:30:00Z,29.0600,-88.0900,122.0,12.0,76.0,99.0,'11111222,11111222,11144222' 
ADCP,ioos:station:wmo:42364:1,2016-12-03T10:30:00Z,29.0600,-88.0900,122.0,12.5,84.0,99.0,'11111222,11111222,11144222' 
ADCP,ioos:station:wmo:42364:1,2016-12-03T11:30:00Z,29.0600,-88.0900,122.0,13.2,86.0,99.0,'11111222,11111222,11144222' 
ADCP,ioos:station:wmo:42364:1,2016-12-03T12:30:00Z,29.0600,-88.0900,122.0,13.9,91.0,99.0,'11111222,11111222,11144222' 
ADCP,ioos:station:wmo:42364:1,2016-12-03T13:30:00Z,29.0600,-88.0900,122.0,13.7,98.0,99.0,'11111222,11111222,11144222' 
ADCP,ioos:station:wmo:42364:1,2016-12-03T14:30:00Z,29.0600,-88.0900,122.0,13.0,100.0,99.0,'11111222,11111222,11144222' 
ADCP,ioos:station:wmo:42364:1,2016-12-03T15:30:00Z,29.0600,-88.0900,122.0,12.6,101.0,99.0,'11111222,11111222,11144222' 
ADCP,ioos:station:wmo:42364:1,2016-12-03T16:30:00Z,29.0600,-88.0900,122.0,12.0,102.0,99.0,'11111222,11111222,11144222' 
ADCP,ioos:station:wmo:42364:1,2016-12-03T17:30:00Z,29.0600,-88.0900,122.0,11.9,106.0,99.0,'11111222,11111222,11144222' 
ADCP,ioos:station:wmo:42364:1,2016-12-03T19:30:00Z,29.0600,-88.0900,122.0,10.6,120.0,99.0,'11111222,11111222,11144222' 
ADCP,ioos:station:wmo:42364:1,2016-12-03T20:30:00Z,29.0600,-88.0900,122.0,10.4,116.0,99.0,'11111222,11111222,11144222' 
ADCP,ioos:station:wmo:42364:1,2016-12-03T22:30:00Z,29.0600,-88.0900,122.0,9.9,98.0,99.0,'11111222,11111222,11144222' 
ADCP,ioos:station:wmo:42364:1,2016-12-03T23:30:00Z,29.0600,-88.0900,122.0,10.2,99.0,99.0,'11111222,11111222,11144222' 
ADCP,ioos:station:wmo:42364:1,2016-12-04T00:30:00Z,29.0600,-88.0900,122.0,11.9,92.0,99.0,'11111222,11111222,11144222' 
ADCP,ioos:station:wmo:42364:1,2016-12-04T01:30:00Z,29.0600,-88.0900,122.0,13.0,90.0,99.0,'11111222,11111222,11144222' 
ADCP,ioos:station:wmo:42364:1,2016-12-04T02:30:00Z,29.0600,-88.0900,122.0,12.7,98.0,99.0,'11111222,11111222,11144222' 
ADCP,ioos:station:wmo:42364:1,2016-12-04T04:30:00Z,29.0600,-88.0900,122.0,13.3,104.0,99.0,'11111222,11111222,11144222' 
ADCP,ioos:station:wmo:42364:1,2016-12-04T05:30:00Z,29.0600,-88.0900,122.0,12.5,110.0,99.0,'11111222,11111222,11144222' 
ADCP,ioos:station:wmo:42364:1,2016-12-04T06:30:00Z,29.0600,-88.0900,122.0,11.9,120.0,99.0,'11111222,11111222,11144222' 
ADCP,ioos:station:wmo:42364:1,2016-12-04T07:30:00Z,29.0600,-88.0900,122.0,12.3,134.0,99.0,'11111222,11111222,11144222' 
ADCP,ioos:station:wmo:42364:1,2016-12-04T08:30:00Z,29.0600,-88.0900,122.0,11.4,138.0,99.0,'11111222,11111222,11144222' 
ADCP,ioos:station:wmo:42364:1,2016-12-04T09:30:00Z,29.0600,-88.0900,122.0,11.2,146.0,99.0,'11111222,11111222,11144222' 
ADCP,ioos:station:wmo:42364:1,2016-12-04T10:30:00Z,29.0600,-88.0900,122.0,11.4,152.0,99.0,'11111222,11111222,11144222' 
ADCP,ioos:station:wmo:42364:1,2016-12-04T11:30:00Z,29.0600,-88.0900,122.0,11.0,158.0,99.0,'11111222,11111222,11144222' 
ADCP,ioos:station:wmo:42364:1,2016-12-04T12:30:00Z,29.0600,-88.0900,122.0,11.6,160.0,99.0,'11111222,11111222,11144222' 
ADCP,ioos:station:wmo:42364:1,2016-12-04T13:30:00Z,29.0600,-88.0900,122.0,11.4,161.0,99.0,'11111222,11111222,11144222' 
ADCP,ioos:station:wmo:42364:1,2016-12-04T14:30:00Z,29.0600,-88.0900,122.0,11.1,162.0,99.0,'11111222,11111222,11144222' 
ADCP,ioos:station:wmo:42364:1,2016-12-04T15:30:00Z,29.0600,-88.0900,122.0,10.8,169.0,99.0,'11111222,11111222,11144222' 
ADCP,ioos:station:wmo:42364:1,2016-12-04T16:30:00Z,29.0600,-88.0900,122.0,10.6,175.0,99.0,'11111222,11111222,11144222' 
ADCP,ioos:station:wmo:42364:1,2016-12-04T17:30:00Z,29.0600,-88.0900,122.0,12.0,178.0,99.0,'11111222,11111222,11144222' 
ADCP,ioos:station:wmo:42364:1,2016-12-04T18:30:00Z,29.0600,-88.0900,122.0,11.3,182.0,99.0,'11111222,11111222,11144222' 
ADCP,ioos:station:wmo:42364:1,2016-12-04T19:30:00Z,29.0600,-88.0900,122.0,11.4,190.0,99.0,'11111222,11111222,11144222' 
ADCP,ioos:station:wmo:42364:1,2016-12-04T20:30:00Z,29.0600,-88.0900,122.0,10.6,189.0,99.0,'11111222,11111222,11144222' 
ADCP,ioos:station:wmo:42364:1,2016-12-04T21:30:00Z,29.0600,-88.0900,122.0,9.9,190.0,99.0,'11111222,11111222,11144222' 
ADCP,ioos:station:wmo:42364:1,2016-12-04T22:30:00Z,29.0600,-88.0900,122.0,9.4,186.0,99.0,'11111222,11111222,11144222' 
ADCP,ioos:station:wmo:42364:1,2016-12-04T23:30:00Z,29.0600,-88.0900,122.0,8.6,190.0,99.0,'11111222,11111222,11144222' 
ADCP,ioos:station:wmo:42364:1,2016-12-05T00:30:00Z,29.0600,-88.0900,122.0,7.7,196.0,99.0,'11111222,11111222,11144222' 
ADCP,ioos:station:wmo:42364:1,2016-12-05T01:30:00Z,29.0600,-88.0900,122.0,9.3,196.0,99.0,'11111222,11111222,11144222' 
ADCP,ioos:station:wmo:42364:1,2016-12-05T02:30:00Z,29.0600,-88.0900,122.0,8.8,194.0,99.0,'11111222,11111222,11144222' 
ADCP,ioos:station:wmo:42364:1,2016-12-05T03:30:00Z,29.0600,-88.0900,122.0,8.8,254.0,99.0,'11111222,11111222,11144222' 
ADCP,ioos:station:wmo:42364:1,2016-12-05T04:30:00Z,29.0600,-88.0900,122.0,9.2,356.0,99.0,'11111222,11111222,11144222' 
ADCP,ioos:station:wmo:42364:1,2016-12-05T05:30:00Z,29.0600,-88.0900,122.0,9.6,15.0,99.0,'11111222,11111222,11144222' 
ADCP,ioos:station:wmo:42364:1,2016-12-05T06:30:00Z,29.0600,-88.0900,122.0,11.2,32.0,99.0,'11111222,11111222,11144222' 
ADCP,ioos:station:wmo:42364:1,2016-12-05T07:30:00Z,29.0600,-88.0900,122.0,9.8,48.0,99.0,'11111222,11111222,11144222' 
ADCP,ioos:station:wmo:42364:1,2016-12-05T08:30:00Z,29.0600,-88.0900,122.0,10.1,69.0,99.0,'11111222,11111222,11144222' 
ADCP,ioos:station:wmo:42364:1,2016-12-05T09:30:00Z,29.0600,-88.0900,122.0,9.1,87.0,99.0,'11111222,11111222,11144222' 
ADCP,ioos:station:wmo:42364:1,2016-12-05T10:30:00Z,29.0600,-88.0900,122.0,8.7,99.0,99.0,'11111222,11111222,11144222' 
ADCP,ioos:station:wmo:42364:1,2016-12-05T11:30:00Z,29.0600,-88.0900,122.0,8.7,103.0,99.0,'11111222,11111222,11144222' 
ADCP,ioos:station:wmo:42364:1,2016-12-05T12:30:00Z,29.0600,-88.0900,122.0,7.8,107.0,99.0,'11111222,11111222,11144222' 
ADCP,ioos:station:wmo:42364:1,2016-12-05T13:30:00Z,29.0600,-88.0900,122.0,5.9,103.0,99.0,'11111222,11111222,11144222' 
ADCP,ioos:station:wmo:42364:1,2016-12-05T14:30:00Z,29.0600,-88.0900,122.0,5.4,113.0,99.0,'11111222,11111222,11144222' 
ADCP,ioos:station:wmo:42364:1,2016-12-05T15:30:00Z,29.0600,-88.0900,122.0,4.5,131.0,99.0,'11111222,11111222,11144222' 
ADCP,ioos:station:wmo:42364:1,2016-12-05T16:30:00Z,29.0600,-88.0900,122.0,7.1,143.0,99.0,'11111222,11111222,11144222' 
ADCP,ioos:station:wmo:42364:1,2016-12-05T17:30:00Z,29.0600,-88.0900,122.0,10.0,170.0,99.0,'11111222,11111222,11144222' 
ADCP,ioos:station:wmo:42364:1,2016-12-05T18:30:00Z,29.0600,-88.0900,122.0,10.3,171.0,99.0,'11111222,11111222,11144222' 
ADCP,ioos:station:wmo:42364:1,2016-12-05T19:30:00Z,29.0600,-88.0900,122.0,10.3,189.0,99.0,'11111222,11111222,11144222' 
ADCP,ioos:station:wmo:42364:1,2016-12-05T20:30:00Z,29.0600,-88.0900,122.0,13.9,208.0,99.0,'11111222,11111222,11144222' 
ADCP,ioos:station:wmo:42364:1,2016-12-05T21:30:00Z,29.0600,-88.0900,122.0,13.7,210.0,99.0,'11111222,11111222,11144222' 
ADCP,ioos:station:wmo:42364:1,2016-12-05T22:30:00Z,29.0600,-88.0900,122.0,12.9,217.0,99.0,'11111222,11111222,11144222' 
ADCP,ioos:station:wmo:42364:1,2016-12-05T23:30:00Z,29.0600,-88.0900,122.0,10.4,220.0,99.0,'11111222,11111222,11144222' 
ADCP,ioos:station:wmo:42364:1,2016-12-06T00:30:00Z,29.0600,-88.0900,122.0,10.1,221.0,99.0,'11111222,11111222,11144222' 
ADCP,ioos:station:wmo:42364:1,2016-12-06T01:30:00Z,29.0600,-88.0900,122.0,10.2,218.0,99.0,'11111222,11111222,11144222' 
ADCP,ioos:station:wmo:42364:1,2016-12-06T02:30:00Z,29.0600,-88.0900,122.0,10.3,210.0,99.0,'11111222,11111222,11144222' 
ADCP,ioos:station:wmo:42364:1,2016-12-06T03:30:00Z,29.0600,-88.0900,122.0,11.1,215.0,99.0,'11111222,11111222,11144222' 
ADCP,ioos:station:wmo:42364:1,2016-12-06T04:30:00Z,29.0600,-88.0900,122.0,11.6,213.0,99.0,'11111222,11111222,11144222' 
ADCP,ioos:station:wmo:42364:1,2016-12-06T06:30:00Z,29.0600,-88.0900,122.0,14.1,228.0,99.0,'11111222,11111222,11144222' 
ADCP,ioos:station:wmo:42364:1,2016-12-06T07:30:00Z,29.0600,-88.0900,122.0,11.0,249.0,99.0,'11111222,11111222,11144222' 
ADCP,ioos:station:wmo:42364:1,2016-12-06T08:30:00Z,29.0600,-88.0900,122.0,12.1,249.0,99.0,'11111222,11111222,11144222' 
ADCP,ioos:station:wmo:42364:1,2016-12-06T09:30:00Z,29.0600,-88.0900,122.0,7.7,270.0,99.0,'11111222,11111222,11144222' 
ADCP,ioos:station:wmo:42364:1,2016-12-06T10:30:00Z,29.0600,-88.0900,122.0,8.5,267.0,99.0,'11111222,11111222,11144222' 
ADCP,ioos:station:wmo:42364:1,2016-12-06T11:30:00Z,29.0600,-88.0900,122.0,8.6,264.0,99.0,'11111222,11111222,11144222' 
ADCP,ioos:station:wmo:42364:1,2016-12-06T12:30:00Z,29.0600,-88.0900,122.0,5.5,280.0,99.0,'11111222,11111222,11144222' 
ADCP,ioos:station:wmo:42364:1,2016-12-06T13:30:00Z,29.0600,-88.0900,122.0,3.3,301.0,99.0,'11111222,11111222,11144222' 
ADCP,ioos:station:wmo:42364:1,2016-12-06T14:30:00Z,29.0600,-88.0900,122.0,2.9,314.0,99.0,'11111222,11111222,11144222' 
ADCP,ioos:station:wmo:42364:1,2016-12-06T15:30:00Z,29.0600,-88.0900,122.0,2.7,309.0,99.0,'11111222,11111222,11144222' 
ADCP,ioos:station:wmo:42364:1,2016-12-06T16:30:00Z,29.0600,-88.0900,122.0,2.6,299.0,99.0,'11111222,11111222,11144222' 
ADCP,ioos:station:wmo:42364:1,2016-12-06T17:30:00Z,29.0600,-88.0900,122.0,1.5,322.0,99.0,'11111222,11111222,11144222' 
ADCP,ioos:station:wmo:42364:1,2016-12-06T18:30:00Z,29.0600,-88.0900,122.0,0.6,352.0,99.0,'11111222,11111222,11144222' 
ADCP,ioos:station:wmo:42364:1,2016-12-06T19:30:00Z,29.0600,-88.0900,122.0,0.1,7.0,99.0,'11111222,11111222,11144222' 
ADCP,ioos:station:wmo:42364:1,2016-12-06T20:30:00Z,29.0600,-88.0900,122.0,0.0,0.0,99.0,'11111222,11111222,11144222' 
ADCP,ioos:station:wmo:42364:1,2016-12-06T21:30:00Z,29.0600,-88.0900,122.0,0.0,0.0,99.0,'11111222,11111222,11144222' 
ADCP,ioos:station:wmo:42364:1,2016-12-06T22:30:00Z,29.0600,-88.0900,122.0,0.2,348.0,99.0,'11111222,11111222,11144222' 
ADCP,ioos:station:wmo:42364:1,2016-12-06T23:30:00Z,29.0600,-88.0900,122.0,0.2,352.0,99.0,'11111222,11111222,11144222' 
ADCP,ioos:station:wmo:42364:1,2016-12-07T00:30:00Z,29.0600,-88.0900,122.0,0.0,359.0,99.0,'11111222,11111222,11144222' 
ADCP,ioos:station:wmo:42364:1,2016-12-07T01:30:00Z,29.0600,-88.0900,122.0,0.0,0.0,99.0,'11111222,11111222,11144222' 
ADCP,ioos:station:wmo:42364:1,2016-12-07T02:30:00Z,29.0600,-88.0900,122.0,0.0,0.0,99.0,'11111222,11111222,11144222' 
ADCP,ioos:station:wmo:42364:1,2016-12-07T03:30:00Z,29.0600,-88.0900,122.0,0.0,0.0,99.0,'11111222,11111222,11144222' 
ADCP,ioos:station:wmo:42364:1,2016-12-07T04:30:00Z,29.0600,-88.0900,122.0,0.0,0.0,99.0,'11111222,11111222,11144222' 
ADCP,ioos:station:wmo:42364:1,2016-12-07T05:30:00Z,29.0600,-88.0900,122.0,0.2,359.0,99.0,'11111222,11111222,11144222' 
ADCP,ioos:station:wmo:42364:1,2016-12-07T06:30:00Z,29.0600,-88.0900,122.0,1.1,358.0,99.0,'11111222,11111222,11144222' 
ADCP,ioos:station:wmo:42364:1,2016-12-07T07:30:00Z,29.0600,-88.0900,122.0,1.0,352.0,99.0,'11111222,11111222,11144222' 
ADCP,ioos:station:wmo:42364:1,2016-12-07T08:30:00Z,29.0600,-88.0900,122.0,0.2,359.0,99.0,'11111222,11111222,11144222' 
ADCP,ioos:station:wmo:42364:1,2016-12-07T09:30:00Z,29.0600,-88.0900,122.0,0.2,360.0,99.0,'11111222,11144222,11144222' 
ADCP,ioos:station:wmo:42364:1,2016-12-07T10:30:00Z,29.0600,-88.0900,122.0,0.5,1.0,99.0,'11111222,11111222,11144222' 
ADCP,ioos:station:wmo:42364:1,2016-12-07T11:30:00Z,29.0600,-88.0900,122.0,0.4,359.0,99.0,'11111222,11111222,11144222' 
ADCP,ioos:station:wmo:42364:1,2016-12-07T12:30:00Z,29.0600,-88.0900,122.0,1.6,359.0,99.0,'11111222,11111222,11144222' 
ADCP,ioos:station:wmo:42364:1,2016-12-07T13:30:00Z,29.0600,-88.0900,122.0,2.7,22.0,99.0,'11111222,11111222,11144222' 
ADCP,ioos:station:wmo:42364:1,2016-12-07T14:30:00Z,29.0600,-88.0900,122.0,1.9,64.0,99.0,'11111222,11111222,11144222' 
ADCP,ioos:station:wmo:42364:1,2016-12-07T15:30:00Z,29.0600,-88.0900,122.0,1.3,31.0,99.0,'11111222,11111222,11144222' 
ADCP,ioos:station:wmo:42364:1,2016-12-07T16:30:00Z,29.0600,-88.0900,122.0,2.0,35.0,99.0,'11111222,11111222,11144222' 
ADCP,ioos:station:wmo:42364:1,2016-12-07T17:30:00Z,29.0600,-88.0900,122.0,1.4,27.0,99.0,'11111222,11111222,11144222' 
ADCP,ioos:station:wmo:42364:1,2016-12-07T18:30:00Z,29.0600,-88.0900,122.0,1.8,34.0,99.0,'11111222,11111222,11144222' 
ADCP,ioos:station:wmo:42364:1,2016-12-07T19:30:00Z,29.0600,-88.0900,122.0,2.4,32.0,99.0,'11111222,11111222,11144222' 
ADCP,ioos:station:wmo:42364:1,2016-12-07T20:30:00Z,29.0600,-88.0900,122.0,2.7,45.0,99.0,'11111222,11111222,11144222' 
ADCP,ioos:station:wmo:42364:1,2016-12-07T21:30:00Z,29.0600,-88.0900,122.0,2.3,57.0,99.0,'11111222,11111222,11144222' 
ADCP,ioos:station:wmo:42364:1,2016-12-07T22:30:00Z,29.0600,-88.0900,122.0,1.9,47.0,99.0,'11111222,11111222,11144222' 
ADCP,ioos:station:wmo:42364:1,2016-12-07T23:30:00Z,29.0600,-88.0900,122.0,2.5,46.0,99.0,'11111222,11111222,11144222' 
ADCP,ioos:station:wmo:42364:1,2016-12-08T00:30:00Z,29.0600,-88.0900,122.0,3.3,47.0,99.0,'11111222,11111222,11144222' 
ADCP,ioos:station:wmo:42364:1,2016-12-08T01:30:00Z,29.0600,-88.0900,122.0,4.3,62.0,99.0,'11111222,11111222,11144222' 
ADCP,ioos:station:wmo:42364:1,2016-12-08T02:30:00Z,29.0600,-88.0900,122.0,3.7,71.0,99.0,'11111222,11111222,11144222' 
ADCP,ioos:station:wmo:42364:1,2016-12-08T03:30:00Z,29.0600,-88.0900,122.0,2.5,58.0,99.0,'11111222,11111222,11144222' 
ADCP,ioos:station:wmo:42364:1,2016-12-08T04:30:00Z,29.0600,-88.0900,122.0,2.4,54.0,99.0,'11111222,11111222,11144222' 
ADCP,ioos:station:wmo:42364:1,2016-12-08T05:30:00Z,29.0600,-88.0900,122.0,3.0,51.0,99.0,'11111222,11111222,11144222' 
ADCP,ioos:station:wmo:42364:1,2016-12-08T06:30:00Z,29.0600,-88.0900,122.0,3.0,46.0,99.0,'11111222,11111222,11144222' 
ADCP,ioos:station:wmo:42364:1,2016-12-08T07:30:00Z,29.0600,-88.0900,122.0,3.8,37.0,99.0,'11111222,11111222,11144222' 
ADCP,ioos:station:wmo:42364:1,2016-12-08T08:30:00Z,29.0600,-88.0900,122.0,3.4,25.0,99.0,'11111222,11111222,11144222' 
ADCP,ioos:station:wmo:42364:1,2016-12-08T09:30:00Z,29.0600,-88.0900,122.0,4.3,15.0,99.0,'11111222,11111222,11144222' 
ADCP,ioos:station:wmo:42364:1,2016-12-08T10:30:00Z,29.0600,-88.0900,122.0,4.9,26.0,99.0,'11111222,11111222,11144222' 
ADCP,ioos:station:wmo:42364:1,2016-12-08T11:30:00Z,29.0600,-88.0900,122.0,5.7,25.0,99.0,'11111222,11111222,11144222' 
ADCP,ioos:station:wmo:42364:1,2016-12-08T12:30:00Z,29.0600,-88.0900,122.0,6.4,50.0,99.0,'11111222,11111222,11144222' 
ADCP,ioos:station:wmo:42364:1,2016-12-08T13:30:00Z,29.0600,-88.0900,122.0,6.7,46.0,99.0,'11111222,11111222,11144222' 
ADCP,ioos:station:wmo:42364:1,2016-12-08T14:30:00Z,29.0600,-88.0900,122.0,8.9,30.0,99.0,'11111222,11111222,11144222' 
ADCP,ioos:station:wmo:42364:1,2016-12-08T15:30:00Z,29.0600,-88.0900,122.0,10.6,27.0,99.0,'11111222,11111222,11144222' 
ADCP,ioos:station:wmo:42364:1,2016-12-08T16:30:00Z,29.0600,-88.0900,122.0,9.7,28.0,99.0,'11111222,11111222,11144222' 
ADCP,ioos:station:wmo:42364:1,2016-12-08T17:30:00Z,29.0600,-88.0900,122.0,9.7,25.0,99.0,'11111222,11111222,11144222' 
ADCP,ioos:station:wmo:42364:1,2016-12-08T18:30:00Z,29.0600,-88.0900,122.0,9.6,24.0,99.0,'11111222,11111222,11144222' 
ADCP,ioos:station:wmo:42364:1,2016-12-08T19:30:00Z,29.0600,-88.0900,122.0,10.6,29.0,99.0,'11111222,11111222,11144222' 
ADCP,ioos:station:wmo:42364:1,2016-12-08T20:30:00Z,29.0600,-88.0900,122.0,10.1,25.0,99.0,'11111222,11111222,11144222' 
ADCP,ioos:station:wmo:42364:1,2016-12-08T21:30:00Z,29.0600,-88.0900,122.0,10.0,32.0,99.0,'11111222,11111222,11144222' 
ADCP,ioos:station:wmo:42364:1,2016-12-08T22:30:00Z,29.0600,-88.0900,122.0,10.7,33.0,99.0,'11111222,11111222,11144222' 
ADCP,ioos:station:wmo:42364:1,2016-12-08T23:30:00Z,29.0600,-88.0900,122.0,10.3,27.0,99.0,'11111222,11111222,11144222' 
ADCP,ioos:station:wmo:42364:1,2016-12-09T00:30:00Z,29.0600,-88.0900,122.0,10.9,24.0,99.0,'11111222,11111222,11144222' 
ADCP,ioos:station:wmo:42364:1,2016-12-09T01:30:00Z,29.0600,-88.0900,122.0,11.5,26.0,99.0,'11111222,11111222,11144222' 
ADCP,ioos:station:wmo:42364:1,2016-12-09T02:30:00Z,29.0600,-88.0900,122.0,12.0,25.0,99.0,'11111222,11111222,11144222' 
ADCP,ioos:station:wmo:42364:1,2016-12-09T03:30:00Z,29.0600,-88.0900,122.0,12.5,27.0,99.0,'11111222,11111222,11144222' 
ADCP,ioos:station:wmo:42364:1,2016-12-09T04:30:00Z,29.0600,-88.0900,122.0,12.9,29.0,99.0,'11111222,11111222,11144222' 
ADCP,ioos:station:wmo:42364:1,2016-12-09T05:30:00Z,29.0600,-88.0900,122.0,12.0,33.0,99.0,'11111222,11111222,11144222' 
ADCP,ioos:station:wmo:42364:1,2016-12-09T06:30:00Z,29.0600,-88.0900,122.0,12.4,33.0,99.0,'11111222,11111222,11144222' 
ADCP,ioos:station:wmo:42364:1,2016-12-09T07:30:00Z,29.0600,-88.0900,122.0,11.8,30.0,99.0,'11111222,11111222,11144222' 
ADCP,ioos:station:wmo:42364:1,2016-12-09T08:30:00Z,29.0600,-88.0900,122.0,12.1,29.0,99.0,'11111222,11111222,11144222' 
ADCP,ioos:station:wmo:42364:1,2016-12-09T09:30:00Z,29.0600,-88.0900,122.0,11.5,28.0,99.0,'11111222,11111222,11144222' 
ADCP,ioos:station:wmo:42364:1,2016-12-09T10:30:00Z,29.0600,-88.0900,122.0,12.7,31.0,99.0,'11111222,11111222,11144222' 
ADCP,ioos:station:wmo:42364:1,2016-12-09T11:30:00Z,29.0600,-88.0900,122.0,11.1,29.0,99.0,'11111222,11111222,11144222' 
ADCP,ioos:station:wmo:42364:1,2016-12-09T12:30:00Z,29.0600,-88.0900,122.0,12.6,31.0,99.0,'11111222,11111222,11144222' 
ADCP,ioos:station:wmo:42364:1,2016-12-09T13:30:00Z,29.0600,-88.0900,122.0,12.4,32.0,99.0,'11111222,11111222,11144222' 